Location: Étang Rond
(42.7927°N, 1.0661°E)
Time: 04:13:06
(UTC+00:00)

Cosmos 2292 Rocket - Visible Passes

Search period start: 19 February 2026 00:00
Search period end: 01 March 2026 00:00
Orbit: 368 x 1233 km, 83.0° (Epoch: 18 February)

Date Brightness Start Highest point End Pass type
(mag) Time Alt. Az. Time Alt. Az. Time Alt. Az.
19 Feb7.202:29:22ESE02:29:22ESE02:19:47NNEvisible
19 Feb 6.1 04:00:06 10° N 04:10:29 23° S 04:13:00 10° S visible
19 Feb6.805:51:36WSW05:51:36WSW05:41:38NWvisible
20 Feb 6.6 03:32:59 10° N 03:45:52 11° SSE 03:46:05 10° SSE visible
20 Feb6.805:26:58SW05:26:58SW05:14:33NNWvisible
21 Feb 6.8 03:05:58 10° N 03:21:03 - SSE 03:06:35 13° N visible
21 Feb6.705:02:08SSW05:02:08SSW04:47:31NNWvisible
22 Feb 6.9 02:39:02 10° N 02:39:34 13° NNE 02:39:34 13° NNE visible
23 Feb 7.1 02:12:13 10° NNE 02:12:33 11° NNE 02:12:33 11° NNE visible
23 Feb 6.7 03:53:09 10° NNW 03:53:29 12° NNW 03:53:29 12° NNW visible
24 Feb 6.7 03:25:50 10° N 03:26:27 13° N 03:26:27 13° N visible
25 Feb 6.8 02:58:34 10° N 02:59:24 15° N 02:59:24 15° N visible
26 Feb 6.9 02:31:24 10° N 02:32:21 15° N 02:32:21 15° N visible
27 Feb 7.0 02:04:18 10° N 02:05:16 15° NNE 02:05:16 15° NNE visible
27 Feb 6.8 03:45:54 10° NNW 03:46:11 11° NNW 03:46:11 11° NNW visible
28 Feb 7.1 01:37:18 10° NNE 01:38:10 14° NNE 01:38:10 14° NNE visible
28 Feb 6.8 03:18:21 10° NNW 03:19:05 14° NNW 03:19:05 14° NNW visible
